sat.trackr.live / text

‹ back to catalog

SKYSAT-C11

NORAD 42987 · 2017-068A

PAYLOAD ACTIVE UNKNOWN

§ Identity

Operator
Country
US
Launch date
2017-10-31
Launch site
AFWTR
Launch vehicle
Mass (kg)
RCS (m²)

Purposes: earth_obs

External: N2YO · Heavens-Above · Gunter

§ Orbital elements

Epoch: 2026-09-19T15:37:11.684352Z

Period
92.13 min
Inclination
97.4464°
Eccentricity
0.0000709
Mean motion
15.62952990 rev/d
Perigee alt
378.7 km
Apogee alt
379.6 km
Semi-major
6,757.3 km
B*
3.1628e-4
RAAN
56.0198°
Arg perigee
52.6617°
Mean anomaly
307.4705°
Rev number
49,797

§ Raw data

SKYSAT-C111 42987U 17068A   26262.65082968  .00028553  00000+0  31628-3 0  99992 42987  97.4464  56.0198 0000709  52.6617 307.4705 15.62952990497978

JSON: /api/v1/satellites/42987 · /tle

For live sub-satellite position, see the globe view (requires WebGL).

§ Visibility from observer

Set your observer location to see the next 7 days of passes ≥ 10°. The values pass through the URL so the page stays shareable.

No JS? Fill the form by hand. The geolocation button needs JavaScript.